TimeMDT,TemperatureF,Dew PointF,Humidity,Sea Level PressureIn,VisibilityMPH,Wind Direction,Wind SpeedMPH,Gust SpeedMPH,PrecipitationIn,Events,Conditions,WindDirDegrees,DateUTC
12:53 AM,62.1,50.0,65,30.02,10.0,SW,3.5,-,N/A,,Clear,220,2013-09-07 06:53:00
1:53 AM,59.0,51.1,75,30.04,10.0,NE,4.6,-,N/A,,Clear,50,2013-09-07 07:53:00
2:53 AM,55.9,50.0,80,30.05,10.0,Calm,Calm,-,N/A,,Clear,0,2013-09-07 08:53:00
3:53 AM,60.1,52.0,75,30.05,10.0,South,3.5,-,N/A,,Clear,190,2013-09-07 09:53:00
4:53 AM,57.9,52.0,81,30.05,10.0,Calm,Calm,-,N/A,,Clear,0,2013-09-07 10:53:00
5:53 AM,55.9,51.1,84,30.06,10.0,Calm,Calm,-,N/A,,Clear,0,2013-09-07 11:53:00
6:53 AM,57.0,52.0,83,30.06,10.0,Calm,Calm,-,N/A,,Scattered Clouds,0,2013-09-07 12:53:00
7:53 AM,63.0,48.9,60,30.06,10.0,SSW,4.6,-,N/A,,Scattered Clouds,200,2013-09-07 13:53:00
8:53 AM,64.9,48.0,54,30.06,10.0,SE,3.5,-,N/A,,Scattered Clouds,140,2013-09-07 14:53:00
9:53 AM,66.9,50.0,54,30.07,10.0,NW,3.5,-,N/A,,Mostly Cloudy,310,2013-09-07 15:53:00
10:53 AM,72.0,51.1,48,30.07,10.0,South,4.6,-,N/A,,Scattered Clouds,180,2013-09-07 16:53:00
11:53 AM,73.9,52.0,46,30.07,10.0,South,5.8,-,N/A,,Scattered Clouds,170,2013-09-07 17:53:00
12:53 PM,75.9,51.1,42,30.05,10.0,SSW,4.6,-,N/A,,Scattered Clouds,200,2013-09-07 18:53:00
1:53 PM,78.1,52.0,40,30.04,10.0,WSW,8.1,-,N/A,,Mostly Cloudy,240,2013-09-07 19:53:00
2:53 PM,80.1,50.0,35,30.04,10.0,SSW,11.5,-,N/A,,Mostly Cloudy,210,2013-09-07 20:53:00
3:53 PM,80.1,51.1,36,30.01,10.0,WSW,11.5,-,N/A,,Mostly Cloudy,240,2013-09-07 21:53:00
4:53 PM,78.1,52.0,40,30.00,10.0,WSW,6.9,-,N/A,,Scattered Clouds,250,2013-09-07 22:53:00
5:53 PM,78.1,48.0,35,29.99,10.0,North,8.1,-,N/A,,Scattered Clouds,10,2013-09-07 23:53:00
6:53 PM,75.9,50.0,40,29.99,10.0,NE,4.6,-,N/A,,Scattered Clouds,50,2013-09-08 00:53:00
7:53 PM,73.0,50.0,44,30.00,10.0,East,5.8,-,N/A,,Scattered Clouds,100,2013-09-08 01:53:00
8:53 PM,71.1,50.0,47,30.01,10.0,SSW,3.5,-,N/A,,Clear,200,2013-09-08 02:53:00
9:53 PM,71.1,48.9,45,30.02,10.0,South,6.9,-,N/A,,Clear,180,2013-09-08 03:53:00
10:53 PM,66.9,48.0,51,30.01,10.0,SSW,12.7,-,N/A,,Clear,200,2013-09-08 04:53:00
11:53 PM,66.0,46.9,50,29.99,10.0,West,3.5,-,N/A,,Clear,260,2013-09-08 05:53:00